Location: *
(43.9900°N, 3.4811°E)
Time: 22:53:49
(UTC+00:00)

Uosat 12 SS-18 rocket - Pass Details

Date: 25 August 2019
Orbit: 589 x 1395 km, 64.6° (Epoch: 22 October)

Event Time Altitude Azimuth Distance (km) Brightness Sun altitude
Rises 20:50:44 0° 323° (NW) 3,497 9.3 -22.2°
Reaches altitude 10° 20:53:27 10° 322° (NW) 2,428 8.2 -22.5°
Maximum altitude 20:58:54 74° 238° (WSW) 744 4.4 -23.3°
Enters shadow 20:59:38 61° 180° (S) 793 4.3 -23.3°
